Welcome to the New NWS' Forecast!
Most changes are behind the scenes, but click here for differences you might notice.

Terminal Aerodrome Forecast (TAF)

Issued by National Weather Service (NWS)

                            
549 
FTUS42 KKEY 161720
TAFEYW
TAF
KEYW 161720Z 1618/1718 12010KT P6SM SCT025=